Location: Unspecified
(49.2170°N, 0.0000°E)
Time: 18:08:46
(UTC+00:00)

A-11 Canister half - Pass Details

Date: 28 January 2021
Orbit: 1516 x 1684 km, 47.2° (Epoch: 05 March)

Event Time Altitude Azimuth Distance (km) Brightness Sun altitude
Rises 17:25:10 0° 192° (SSW) 4,796 12.1 -6.0°
Reaches altitude 10° 17:29:10 10° 178° (S) 3,785 11.3 -6.6°
Maximum altitude 17:35:59 22° 132° (SE) 2,881 10.2 -7.7°
Drops below altitude 10° 17:42:39 10° 85° (E) 3,712 10.4 -8.7°
Enters shadow 17:42:58 - 84° (E) 3,782 10.4 -8.8°
